Simultaneous Nadir Overpasses (SNOs) Predictions

Prediction of SNOs between NOAA-20 and AQUA Satellite Orbit:

Table of predicted SNOs for the next 14.0 days since TLE Epoch: 3/31/2018
Index Date (NOAA-20) Time (NOAA-20) Lat,Lon (NOAA-20) SZA (NOAA-20 ) Date (AQUA) Time (AQUA) Lat,Lon (AQUA) SZA (AQUA ) Distance(km) Time Diff (sec)
1 04/02/2018 23:03:18 76.72, 75.59 91.44 04/02/2018 23:03:23 76.73, 75.67 91.41 2.30 5
2 04/02/2018 23:53:40 -77.74,-112.68 89.91 04/02/2018 23:52:29 -77.73,-112.80 89.82 3.01 71
3 04/05/2018 14:29:34 -76.42, 22.92 89.22 04/05/2018 14:30:33 -76.41, 22.82 89.25 2.71 59
4 04/05/2018 15:20:05 77.00,-167.52 90.04 04/05/2018 15:19:46 77.00,-167.46 90.05 1.59 19
5 04/08/2018 06:46:28 -76.44, 138.76 90.27 04/08/2018 06:47:02 -76.45, 138.81 90.31 1.44 34
6 04/08/2018 07:36:52 77.32, -50.40 88.61 04/08/2018 07:36:09 77.32, -50.39 88.64 0.22 43
7 04/10/2018 23:03:13 -76.86,-103.87 91.80 04/10/2018 23:03:23 -76.85,-103.91 91.80 1.02 10
8 04/10/2018 23:53:38 77.67, 66.99 87.13 04/10/2018 23:52:31 77.66, 66.91 87.20 1.91 67
9 04/13/2018 14:29:32 76.38,-157.22 87.82 04/13/2018 14:30:35 76.37,-157.31 87.79 2.71 63




NCC Satellite Simultaneous Nadir Overpasses (SNOs) Prediction Service
